Voltar ao catálogo

KUIPER-00370

AtivoComunicaçõesLEO
NORAD 68919·PAYLOAD·🇺🇸 United States

Lançado Apr 30, 2026 de Guiana Space Centre

Loading…

Próximas Passagens (próximas 24 horas)

TLE

AtualizadoSource: CelesTrak SupGP

Época: Sep 15, 2026, 01:25 UTC

1 68919C 26098A   26258.05914352 -.00005561  00000+0 -72794-3 0  2588
2 68919  51.8999  20.6108 0000474 109.5510 285.2527 14.79938956    12

Acompanhe KUIPER-00370 em tempo real com AllMySat

Download on the App Store